PST,Max TemperatureF,Mean TemperatureF,Min TemperatureF,Max Dew PointF,MeanDew PointF,Min DewpointF,Max Humidity, Mean Humidity, Min Humidity, Max Sea Level PressureIn, Mean Sea Level PressureIn, Min Sea Level PressureIn, Max VisibilityMiles, Mean VisibilityMiles, Min VisibilityMiles, Max Wind SpeedMPH, Mean Wind SpeedMPH, Max Gust SpeedMPH,PrecipitationIn, CloudCover, Events, WindDirDegrees
2013-11-1,60,53,45,50,48,45,100,84,67,30.28,30.17,29.92,10,6,0,9,1,10,0.00,7,Fog-Rain,125
2013-11-2,57,51,44,52,46,39,93,74,55,30.09,29.92,29.77,10,9,4,23,9,31,0.39,7,Rain,199
2013-11-3,51,46,41,45,42,39,93,82,71,30.18,30.15,30.10,10,10,9,12,5,14,0.07,7,Rain,193
2013-11-4,51,48,44,47,45,43,93,85,77,30.18,30.15,30.12,10,9,6,16,7,22,0.02,8,Rain,166
2013-11-5,55,52,49,52,50,47,93,90,86,30.24,30.17,30.11,10,10,7,18,10,24,0.05,8,Rain,176
2013-11-6,55,53,51,54,52,50,100,93,86,30.29,30.20,30.09,10,4,0,9,4,12,0.25,8,Fog-Rain,357
2013-11-7,57,53,48,55,49,42,100,83,66,30.15,30.03,29.92,10,8,1,23,10,31,0.43,7,Rain,189
2013-11-8,53,50,47,47,45,41,86,85,83,30.21,30.16,30.12,10,8,1,14,5,17,0.02,6,Rain,179
2013-11-9,51,47,43,45,44,42,100,87,74,30.12,30.08,30.05,10,7,1,7,2,10,0.00,8,,18
2013-11-10,60,50,40,49,43,39,100,81,62,30.09,30.06,30.04,10,4,0,7,3,8,0.00,1,Fog,129
2013-11-11,59,50,40,47,43,39,100,83,66,30.15,30.08,30.02,10,3,0,10,1,13,0.00,5,Fog,182
2013-11-12,60,54,47,54,50,45,100,89,78,30.43,30.28,30.11,10,7,2,14,3,17,0.23,8,Rain,169
2013-11-13,52,50,48,52,49,46,100,93,86,30.48,30.43,30.30,10,5,0,9,4,12,0.00,8,Fog,332
2013-11-14,53,49,45,47,45,43,100,86,71,30.29,30.20,30.11,10,8,0,8,2,12,T,8,Fog-Rain,230
2013-11-15,50,44,38,45,43,39,100,90,80,30.11,29.93,29.61,10,9,2,23,9,31,0.04,7,Rain,183
2013-11-16,52,49,46,46,42,40,86,75,63,29.88,29.72,29.58,10,10,7,22,7,28,0.03,8,Rain,217
2013-11-17,55,51,47,47,44,41,93,82,71,30.02,29.97,29.90,10,10,6,22,12,28,0.01,8,Rain,179
2013-11-18,55,52,48,49,45,42,89,78,66,29.99,29.86,29.74,10,10,4,28,16,36,0.44,7,Rain,178
2013-11-19,54,46,38,52,46,30,100,81,62,30.03,29.83,29.72,10,7,2,22,10,31,0.59,8,Rain,18
2013-11-20,48,39,30,33,29,23,92,73,53,30.38,30.21,30.05,10,10,10,20,9,24,0.00,0,,358
2013-11-21,48,38,27,22,18,13,75,52,28,30.56,30.50,30.40,10,10,10,21,8,23,0.00,0,,343
2013-11-22,51,38,24,23,19,17,81,55,29,30.56,30.48,30.38,10,10,10,17,6,20,0.00,0,,342
2013-11-23,54,41,28,25,22,18,75,53,30,30.37,30.26,30.17,10,10,10,13,4,16,0.00,0,,350
2013-11-24,51,38,24,29,26,22,92,65,38,30.29,30.21,30.16,10,10,8,6,1,7,0.00,0,,160
2013-11-25,51,38,24,33,28,24,100,71,42,30.35,30.32,30.29,10,8,5,5,0,7,0.00,0,,330
2013-11-26,48,37,26,36,32,26,100,83,65,30.28,30.20,30.07,10,7,2,7,1,7,0.00,3,,81
2013-11-27,51,41,30,35,33,30,100,75,50,30.05,30.01,29.96,10,8,4,8,1,10,0.00,0,,27
2013-11-28,52,40,28,34,31,28,100,75,50,30.21,30.11,30.03,10,9,5,7,1,8,0.00,0,,232
2013-11-29,45,36,27,39,33,27,100,88,76,30.37,30.30,30.22,7,5,2,6,1,7,T,3,Rain,130
2013-11-30,53,47,40,46,42,39,93,80,66,30.40,30.34,30.24,10,8,4,18,3,23,T,8,,164